Time,TemperatureF,DewpointF,PressureIn,WindDirection,WindDirectionDegrees,WindSpeedMPH,WindSpeedGustMPH,Humidity,HourlyPrecipIn,Conditions,Clouds,dailyrainin,SoftwareType,DateUTC
2013-06-15 00:01:00,58.0,52.0,30.06,ENE,59,1.0,-999.0,79,-99.99,,,-99.99,,2013-06-15 07:01:00,
2013-06-15 00:11:00,58.0,52.0,30.06,NNW,345,0.0,-999.0,80,-99.99,,,-99.99,,2013-06-15 07:11:00,
2013-06-15 00:22:00,57.0,51.0,30.06,NNW,346,0.0,-999.0,81,-99.99,,,-99.99,,2013-06-15 07:22:00,
2013-06-15 00:32:00,57.0,52.0,30.06,North,360,0.0,-999.0,82,-99.99,,,-99.99,,2013-06-15 07:32:00,
2013-06-15 00:43:00,57.0,52.0,30.06,North,360,0.0,-999.0,83,-99.99,,,-99.99,,2013-06-15 07:43:00,
2013-06-15 00:53:00,57.0,52.0,30.05,ENE,63,0.0,-999.0,83,-99.99,,,-99.99,,2013-06-15 07:53:00,
2013-06-15 01:02:00,56.0,51.0,30.05,NNE,30,0.0,-999.0,83,-99.99,,,-99.99,,2013-06-15 08:02:00,
2013-06-15 01:11:00,56.0,52.0,30.05,NNE,30,0.0,-999.0,85,-99.99,,,-99.99,,2013-06-15 08:11:00,
2013-06-15 01:22:00,55.0,51.0,30.04,NNE,30,0.0,-999.0,85,-99.99,,,-99.99,,2013-06-15 08:22:00,
2013-06-15 01:33:00,55.0,51.0,30.04,NNE,30,0.0,-999.0,87,-99.99,,,-99.99,,2013-06-15 08:33:00,
2013-06-15 01:42:00,55.0,51.0,30.04,NNE,30,0.0,-999.0,87,-99.99,,,-99.99,,2013-06-15 08:42:00,
2013-06-15 01:53:00,55.0,51.0,30.03,NNE,30,0.0,-999.0,87,-99.99,,,-99.99,,2013-06-15 08:53:00,
2013-06-15 02:02:00,55.0,52.0,30.03,NNE,23,0.0,-999.0,88,-99.99,,,-99.99,,2013-06-15 09:02:00,
2013-06-15 02:11:00,55.0,52.0,30.02,NNE,23,0.0,-999.0,88,-99.99,,,-99.99,,2013-06-15 09:11:00,
2013-06-15 02:21:00,55.0,51.0,30.02,NNE,23,0.0,-999.0,87,-99.99,,,-99.99,,2013-06-15 09:21:00,
2013-06-15 02:32:00,55.0,51.0,30.02,NNE,23,0.0,-999.0,87,-99.99,,,-99.99,,2013-06-15 09:32:00,
2013-06-15 02:43:00,55.0,52.0,30.02,ENE,74,0.0,-999.0,88,-99.99,,,-99.99,,2013-06-15 09:43:00,
2013-06-15 02:52:00,55.0,52.0,30.02,ENE,74,0.0,-999.0,89,-99.99,,,-99.99,,2013-06-15 09:52:00,
2013-06-15 03:01:00,55.0,52.0,30.02,East,80,0.0,-999.0,89,-99.99,,,-99.99,,2013-06-15 10:01:00,
2013-06-15 03:11:00,54.0,51.0,30.01,East,80,0.0,-999.0,90,-99.99,,,-99.99,,2013-06-15 10:11:00,
2013-06-15 03:23:00,54.0,51.0,30.01,East,80,0.0,-999.0,90,-99.99,,,-99.99,,2013-06-15 10:23:00,
2013-06-15 03:33:00,54.0,51.0,30.01,East,80,0.0,-999.0,91,-99.99,,,-99.99,,2013-06-15 10:33:00,
2013-06-15 03:43:00,53.0,50.0,30.01,East,80,0.0,-999.0,91,-99.99,,,-99.99,,2013-06-15 10:43:00,
2013-06-15 03:53:00,53.0,51.0,30.01,East,80,0.0,-999.0,92,-99.99,,,-99.99,,2013-06-15 10:53:00,
2013-06-15 04:01:00,53.0,51.0,30.01,East,80,0.0,-999.0,92,-99.99,,,-99.99,,2013-06-15 11:01:00,
2013-06-15 04:11:00,52.0,50.0,30.01,East,80,0.0,-999.0,92,-99.99,,,-99.99,,2013-06-15 11:11:00,
2013-06-15 04:22:00,52.0,50.0,30.01,East,80,0.0,-999.0,92,-99.99,,,-99.99,,2013-06-15 11:22:00,
2013-06-15 04:32:00,52.0,50.0,30.01,East,80,0.0,-999.0,93,-99.99,,,-99.99,,2013-06-15 11:32:00,
2013-06-15 04:43:00,52.0,50.0,30.00,East,80,0.0,-999.0,93,-99.99,,,-99.99,,2013-06-15 11:43:00,
2013-06-15 04:53:00,52.0,50.0,30.00,East,80,0.0,-999.0,94,-99.99,,,-99.99,,2013-06-15 11:53:00,
2013-06-15 05:01:00,52.0,50.0,30.00,East,80,0.0,-999.0,93,-99.99,,,-99.99,,2013-06-15 12:01:00,
2013-06-15 05:11:00,53.0,51.0,30.00,NW,315,0.0,-999.0,93,-99.99,,,-99.99,,2013-06-15 12:11:00,
2013-06-15 05:22:00,53.0,51.0,30.00,NW,315,0.0,-999.0,93,-99.99,,,-99.99,,2013-06-15 12:22:00,
2013-06-15 05:33:00,53.0,51.0,30.00,NW,315,0.0,-999.0,93,-99.99,,,-99.99,,2013-06-15 12:33:00,
2013-06-15 05:43:00,53.0,51.0,30.00,NNE,31,0.0,-999.0,93,-99.99,,,-99.99,,2013-06-15 12:43:00,
2013-06-15 05:52:00,53.0,51.0,29.99,NNE,31,0.0,-999.0,94,-99.99,,,-99.99,,2013-06-15 12:52:00,
2013-06-15 06:02:00,54.0,52.0,29.99,NE,43,0.0,-999.0,93,-99.99,,,-99.99,,2013-06-15 13:02:00,
2013-06-15 06:11:00,53.0,51.0,29.99,NE,55,0.0,-999.0,92,-99.99,,,-99.99,,2013-06-15 13:11:00,
2013-06-15 06:22:00,53.0,50.0,29.99,NE,55,0.0,-999.0,91,-99.99,,,-99.99,,2013-06-15 13:22:00,
2013-06-15 06:32:00,53.0,50.0,29.99,North,355,0.0,-999.0,91,-99.99,,,-99.99,,2013-06-15 13:32:00,
2013-06-15 06:43:00,53.0,50.0,29.99,NE,48,0.0,-999.0,91,-99.99,,,-99.99,,2013-06-15 13:43:00,
2013-06-15 06:53:00,54.0,51.0,29.99,NNW,340,0.0,-999.0,90,-99.99,,,-99.99,,2013-06-15 13:53:00,
2013-06-15 07:01:00,54.0,51.0,29.99,NE,51,0.0,-999.0,90,-99.99,,,-99.99,,2013-06-15 14:01:00,
2013-06-15 07:11:00,54.0,51.0,29.99,NNE,13,1.0,-999.0,90,-99.99,,,-99.99,,2013-06-15 14:11:00,
2013-06-15 07:22:00,54.0,51.0,29.99,ENE,62,2.0,-999.0,89,-99.99,,,-99.99,,2013-06-15 14:22:00,
2013-06-15 07:34:00,55.0,52.0,29.99,NNE,31,2.0,-999.0,89,-99.99,,,-99.99,,2013-06-15 14:34:00,
2013-06-15 07:43:00,55.0,51.0,29.99,NNE,13,1.0,-999.0,87,-99.99,,,-99.99,,2013-06-15 14:43:00,
2013-06-15 07:53:00,55.0,50.0,29.99,ENE,65,1.0,-999.0,84,-99.99,,,-99.99,,2013-06-15 14:53:00,
2013-06-15 08:01:00,56.0,51.0,29.98,NNE,24,2.0,-999.0,84,-99.99,,,-99.99,,2013-06-15 15:01:00,
2013-06-15 08:11:00,56.0,51.0,29.98,North,355,3.0,-999.0,83,-99.99,,,-99.99,,2013-06-15 15:11:00,
2013-06-15 08:22:00,56.0,51.0,29.98,NNE,22,2.0,-999.0,82,-99.99,,,-99.99,,2013-06-15 15:22:00,
2013-06-15 08:33:00,57.0,51.0,29.98,NNE,29,2.0,-999.0,81,-99.99,,,-99.99,,2013-06-15 15:33:00,
2013-06-15 08:42:00,57.0,51.0,29.98,NNE,22,2.0,-999.0,80,-99.99,,,-99.99,,2013-06-15 15:42:00,
2013-06-15 08:52:00,57.0,51.0,29.98,NNW,343,1.0,-999.0,80,-99.99,,,-99.99,,2013-06-15 15:52:00,
2013-06-15 09:01:00,58.0,51.0,29.98,NNW,330,1.0,-999.0,77,-99.99,,,-99.99,,2013-06-15 16:01:00,
2013-06-15 09:11:00,58.0,51.0,29.98,North,351,2.0,-999.0,77,-99.99,,,-99.99,,2013-06-15 16:11:00,
2013-06-15 09:21:00,58.0,51.0,29.98,NE,46,2.0,-999.0,78,-99.99,,,-99.99,,2013-06-15 16:21:00,
2013-06-15 09:32:00,59.0,52.0,29.98,NNE,26,1.0,-999.0,77,-99.99,,,-99.99,,2013-06-15 16:32:00,
2013-06-15 09:43:00,60.0,53.0,29.98,ENE,76,1.0,-999.0,78,-99.99,,,-99.99,,2013-06-15 16:43:00,
2013-06-15 09:53:00,60.0,52.0,29.98,NNW,340,1.0,-999.0,76,-99.99,,,-99.99,,2013-06-15 16:53:00,
2013-06-15 10:01:00,61.0,54.0,29.97,NNE,24,2.0,-999.0,77,-99.99,,,-99.99,,2013-06-15 17:01:00,
2013-06-15 10:11:00,62.0,53.0,29.97,North,5,2.0,-999.0,73,-99.99,,,-99.99,,2013-06-15 17:11:00,
2013-06-15 10:21:00,63.0,54.0,29.97,NE,44,1.0,-999.0,73,-99.99,,,-99.99,,2013-06-15 17:21:00,
2013-06-15 10:32:00,63.0,53.0,29.97,ENE,74,1.0,-999.0,69,-99.99,,,-99.99,,2013-06-15 17:32:00,
2013-06-15 10:43:00,63.0,53.0,29.96,ENE,75,2.0,-999.0,71,-99.99,,,-99.99,,2013-06-15 17:43:00,
2013-06-15 10:52:00,64.0,54.0,29.96,ENE,59,2.0,-999.0,70,-99.99,,,-99.99,,2013-06-15 17:52:00,
2013-06-15 11:01:00,64.0,54.0,29.96,NNW,329,1.0,-999.0,70,-99.99,,,-99.99,,2013-06-15 18:01:00,
2013-06-15 11:11:00,64.0,54.0,29.96,North,5,1.0,-999.0,70,-99.99,,,-99.99,,2013-06-15 18:11:00,
2013-06-15 11:22:00,65.0,55.0,29.96,ENE,65,0.0,-999.0,69,-99.99,,,-99.99,,2013-06-15 18:22:00,
2013-06-15 11:32:00,65.0,55.0,29.96,NNE,13,1.0,-999.0,69,-99.99,,,-99.99,,2013-06-15 18:32:00,
2013-06-15 11:43:00,65.0,55.0,29.95,NE,38,2.0,-999.0,69,-99.99,,,-99.99,,2013-06-15 18:43:00,
2013-06-15 11:53:00,66.0,56.0,29.95,NNE,33,1.0,-999.0,69,-99.99,,,-99.99,,2013-06-15 18:53:00,
2013-06-15 12:01:00,68.0,57.0,29.95,NNE,13,0.0,-999.0,67,-99.99,,,-99.99,,2013-06-15 19:01:00,
2013-06-15 12:11:00,69.0,56.0,29.95,NNE,23,0.0,-999.0,63,-99.99,,,-99.99,,2013-06-15 19:11:00,
2013-06-15 12:22:00,68.0,55.0,29.95,NNE,26,1.0,-999.0,64,-99.99,,,-99.99,,2013-06-15 19:22:00,
2013-06-15 12:32:00,68.0,55.0,29.95,NE,38,0.0,-999.0,63,-99.99,,,-99.99,,2013-06-15 19:32:00,
2013-06-15 12:43:00,70.0,57.0,29.95,North,9,0.0,-999.0,63,-99.99,,,-99.99,,2013-06-15 19:43:00,
2013-06-15 12:52:00,69.0,57.0,29.95,WNW,298,1.0,-999.0,65,-99.99,,,-99.99,,2013-06-15 19:52:00,
2013-06-15 13:01:00,70.0,56.0,29.94,NNE,16,0.0,-999.0,61,-99.99,,,-99.99,,2013-06-15 20:01:00,
2013-06-15 13:11:00,69.0,55.0,29.94,NE,38,1.0,-999.0,60,-99.99,,,-99.99,,2013-06-15 20:11:00,
2013-06-15 13:22:00,71.0,57.0,29.94,North,5,1.0,-999.0,61,-99.99,,,-99.99,,2013-06-15 20:22:00,
2013-06-15 13:33:00,71.0,56.0,29.94,NNE,24,2.0,-999.0,60,-99.99,,,-99.99,,2013-06-15 20:33:00,
2013-06-15 13:43:00,71.0,56.0,29.94,NNE,18,2.0,-999.0,60,-99.99,,,-99.99,,2013-06-15 20:43:00,
2013-06-15 13:52:00,71.0,55.0,29.93,NE,37,2.0,-999.0,57,-99.99,,,-99.99,,2013-06-15 20:52:00,
2013-06-15 14:01:00,72.0,56.0,29.93,ENE,61,2.0,-999.0,58,-99.99,,,-99.99,,2013-06-15 21:01:00,
2013-06-15 14:11:00,72.0,56.0,29.93,NE,40,2.0,-999.0,58,-99.99,,,-99.99,,2013-06-15 21:11:00,
2013-06-15 14:22:00,73.0,57.0,29.93,NNE,18,1.0,-999.0,58,-99.99,,,-99.99,,2013-06-15 21:22:00,
2013-06-15 14:33:00,73.0,56.0,29.93,NNW,344,0.0,-999.0,56,-99.99,,,-99.99,,2013-06-15 21:33:00,
2013-06-15 14:42:00,73.0,57.0,29.93,NE,37,1.0,-999.0,58,-99.99,,,-99.99,,2013-06-15 21:42:00,
2013-06-15 14:52:00,74.0,57.0,29.93,East,86,0.0,-999.0,55,-99.99,,,-99.99,,2013-06-15 21:52:00,
2013-06-15 15:01:00,73.0,58.0,29.93,NNE,17,1.0,-999.0,60,-99.99,,,-99.99,,2013-06-15 22:01:00,
2013-06-15 15:11:00,72.0,55.0,29.93,NE,42,1.0,-999.0,56,-99.99,,,-99.99,,2013-06-15 22:11:00,
2013-06-15 15:22:00,72.0,57.0,29.93,ENE,60,1.0,-999.0,60,-99.99,,,-99.99,,2013-06-15 22:22:00,
2013-06-15 15:32:00,72.0,57.0,29.92,NE,38,0.0,-999.0,60,-99.99,,,-99.99,,2013-06-15 22:32:00,
2013-06-15 15:42:00,72.0,57.0,29.93,NE,42,0.0,-999.0,60,-99.99,,,-99.99,,2013-06-15 22:42:00,
2013-06-15 15:53:00,71.0,57.0,29.92,NE,53,3.0,-999.0,61,-99.99,,,-99.99,,2013-06-15 22:53:00,
2013-06-15 16:01:00,70.0,56.0,29.92,NE,40,3.0,-999.0,61,-99.99,,,-99.99,,2013-06-15 23:01:00,
2013-06-15 16:11:00,71.0,55.0,29.92,North,5,2.0,-999.0,57,-99.99,,,-99.99,,2013-06-15 23:11:00,
2013-06-15 16:22:00,71.0,55.0,29.92,NNE,33,1.0,-999.0,58,-99.99,,,-99.99,,2013-06-15 23:22:00,
2013-06-15 16:33:00,72.0,54.0,29.92,NE,34,2.0,-999.0,54,-99.99,,,-99.99,,2013-06-15 23:33:00,
2013-06-15 16:42:00,72.0,56.0,29.92,NNE,25,1.0,-999.0,58,-99.99,,,-99.99,,2013-06-15 23:42:00,
2013-06-15 16:52:00,72.0,57.0,29.92,North,355,2.0,-999.0,59,-99.99,,,-99.99,,2013-06-15 23:52:00,
2013-06-15 17:01:00,71.0,57.0,29.92,NE,51,1.0,-999.0,61,-99.99,,,-99.99,,2013-06-16 00:01:00,
2013-06-15 17:11:00,71.0,56.0,29.92,ENE,58,2.0,-999.0,60,-99.99,,,-99.99,,2013-06-16 00:11:00,
2013-06-15 17:22:00,71.0,57.0,29.92,NE,55,2.0,-999.0,62,-99.99,,,-99.99,,2013-06-16 00:22:00,
2013-06-15 17:43:00,70.0,58.0,29.93,NE,46,2.0,-999.0,65,-99.99,,,-99.99,,2013-06-16 00:43:00,
2013-06-15 17:52:00,70.0,57.0,29.93,North,360,1.0,-999.0,64,-99.99,,,-99.99,,2013-06-16 00:52:00,
2013-06-15 18:11:00,69.0,58.0,29.93,NE,36,1.0,-999.0,67,-99.99,,,-99.99,,2013-06-16 01:11:00,
2013-06-15 18:22:00,70.0,59.0,29.93,NE,35,1.0,-999.0,67,-99.99,,,-99.99,,2013-06-16 01:22:00,
2013-06-15 18:33:00,70.0,58.0,29.93,ENE,57,1.0,-999.0,66,-99.99,,,-99.99,,2013-06-16 01:33:00,
2013-06-15 18:42:00,70.0,58.0,29.93,ENE,59,1.0,-999.0,65,-99.99,,,-99.99,,2013-06-16 01:42:00,
2013-06-15 18:53:00,69.0,57.0,29.93,NW,311,1.0,-999.0,66,-99.99,,,-99.99,,2013-06-16 01:53:00,
2013-06-15 19:01:00,70.0,58.0,29.93,ENE,63,1.0,-999.0,66,-99.99,,,-99.99,,2013-06-16 02:01:00,
2013-06-15 19:11:00,69.0,57.0,29.93,NE,51,1.0,-999.0,66,-99.99,,,-99.99,,2013-06-16 02:11:00,
2013-06-15 19:22:00,70.0,56.0,29.93,NNE,26,1.0,-999.0,62,-99.99,,,-99.99,,2013-06-16 02:22:00,
2013-06-15 19:33:00,70.0,56.0,29.93,NE,46,1.0,-999.0,62,-99.99,,,-99.99,,2013-06-16 02:33:00,
2013-06-15 19:42:00,69.0,56.0,29.93,North,355,0.0,-999.0,64,-99.99,,,-99.99,,2013-06-16 02:42:00,
2013-06-15 19:53:00,69.0,56.0,29.93,NNE,31,0.0,-999.0,63,-99.99,,,-99.99,,2013-06-16 02:53:00,
2013-06-15 20:01:00,69.0,56.0,29.93,NE,51,0.0,-999.0,63,-99.99,,,-99.99,,2013-06-16 03:01:00,
2013-06-15 20:11:00,69.0,56.0,29.94,NNE,19,0.0,-999.0,64,-99.99,,,-99.99,,2013-06-16 03:11:00,
2013-06-15 20:22:00,68.0,56.0,29.94,NNE,19,0.0,-999.0,65,-99.99,,,-99.99,,2013-06-16 03:22:00,
2013-06-15 20:33:00,68.0,57.0,29.94,NNE,19,0.0,-999.0,68,-99.99,,,-99.99,,2013-06-16 03:33:00,
2013-06-15 20:43:00,67.0,57.0,29.94,NNE,19,0.0,-999.0,71,-99.99,,,-99.99,,2013-06-16 03:43:00,
2013-06-15 20:53:00,67.0,56.0,29.94,NNE,19,0.0,-999.0,68,-99.99,,,-99.99,,2013-06-16 03:53:00,
2013-06-15 21:01:00,67.0,57.0,29.94,NNE,19,0.0,-999.0,70,-99.99,,,-99.99,,2013-06-16 04:01:00,
2013-06-15 21:12:00,67.0,57.0,29.94,NNE,19,0.0,-999.0,70,-99.99,,,-99.99,,2013-06-16 04:12:00,
2013-06-15 21:23:00,66.0,56.0,29.94,NNE,21,0.0,-999.0,71,-99.99,,,-99.99,,2013-06-16 04:23:00,
2013-06-15 21:33:00,66.0,57.0,29.95,NNE,21,0.0,-999.0,73,-99.99,,,-99.99,,2013-06-16 04:33:00,
2013-06-15 21:42:00,65.0,56.0,29.95,NNE,21,0.0,-999.0,73,-99.99,,,-99.99,,2013-06-16 04:42:00,
2013-06-15 21:53:00,65.0,56.0,29.96,NNE,21,0.0,-999.0,74,-99.99,,,-99.99,,2013-06-16 04:53:00,
2013-06-15 22:01:00,64.0,56.0,29.96,NNE,21,0.0,-999.0,76,-99.99,,,-99.99,,2013-06-16 05:01:00,
2013-06-15 22:11:00,64.0,56.0,29.96,NNE,21,0.0,-999.0,76,-99.99,,,-99.99,,2013-06-16 05:11:00,
2013-06-15 22:22:00,63.0,56.0,29.96,NNE,21,0.0,-999.0,78,-99.99,,,-99.99,,2013-06-16 05:22:00,
2013-06-15 22:33:00,63.0,56.0,29.97,NNE,21,0.0,-999.0,79,-99.99,,,-99.99,,2013-06-16 05:33:00,
2013-06-15 22:43:00,63.0,57.0,29.97,NNE,21,0.0,-999.0,80,-99.99,,,-99.99,,2013-06-16 05:43:00,
2013-06-15 22:52:00,63.0,57.0,29.97,NNE,21,0.0,-999.0,80,-99.99,,,-99.99,,2013-06-16 05:52:00,
2013-06-15 23:01:00,62.0,56.0,29.97,NNE,21,0.0,-999.0,82,-99.99,,,-99.99,,2013-06-16 06:01:00,
2013-06-15 23:11:00,62.0,57.0,29.97,NNE,21,0.0,-999.0,83,-99.99,,,-99.99,,2013-06-16 06:11:00,
2013-06-15 23:22:00,62.0,57.0,29.98,NNE,21,0.0,-999.0,83,-99.99,,,-99.99,,2013-06-16 06:22:00,
2013-06-15 23:32:00,61.0,56.0,29.98,NNE,21,0.0,-999.0,84,-99.99,,,-99.99,,2013-06-16 06:32:00,
2013-06-15 23:43:00,61.0,56.0,29.98,NNE,21,0.0,-999.0,83,-99.99,,,-99.99,,2013-06-16 06:43:00,
2013-06-15 23:52:00,61.0,56.0,29.98,NNE,21,0.0,-999.0,83,-99.99,,,-99.99,,2013-06-16 06:52:00,